This is the latest recevied weather packets stored in our database for station/object N1YZ. If no packets are shown the sender has not sent any weather packets the latest 10 day(s).
| Time | Temp. | Humidity | Pressure | Rain* | Wind** | Luminosity | Snow |
|---|---|---|---|---|---|---|---|
| 1788391155 | 33.33° C | 57% | 1035.1 hPa | 0 mm | - | 15 W/m² | - |
| 1788390850 | 33.33° C | 57% | 1035.3 hPa | 0 mm | - | 18 W/m² | - |
| 1788390545 | 33.89° C | 56% | 1035.3 hPa | 0 mm | - | 21 W/m² | - |
| 1788390244 | 33.89° C | 55% | 1035.1 hPa | 0 mm | - | 24 W/m² | - |
| 1788389938 | 33.89° C | 55% | 1035.1 hPa | 0 mm | - | 28 W/m² | - |
| 1788389633 | 33.89° C | 56% | 1035 hPa | 0 mm | - | 35 W/m² | - |
| 1788389332 | 33.89° C | 57% | 1035.1 hPa | 0 mm | - | 39 W/m² | - |
| 1788389027 | 33.89° C | 58% | 1035.3 hPa | 0 mm | - | 39 W/m² | - |
| 1788388724 | 33.33° C | 58% | 1035.1 hPa | 0 mm | - | 37 W/m² | - |
| 1788388423 | 33.33° C | 59% | 1035.2 hPa | 0 mm | - | 34 W/m² | - |
| 1788388117 | 33.33° C | 58% | 1035.4 hPa | 0 mm | - | 33 W/m² | - |
| 1788387816 | 33.33° C | 57% | 1035.5 hPa | 0 mm | - | 28 W/m² | - |
| 1788387511 | 33.89° C | 56% | 1035.2 hPa | 0 mm | - | 26 W/m² | - |
| 1788387210 | 33.33° C | 56% | 1035.5 hPa | 0 mm | - | 28 W/m² | - |
| 1788386906 | 33.89° C | 55% | 1035.4 hPa | 0 mm | - | 35 W/m² | - |
| 1788386605 | 33.89° C | 54% | 1035.2 hPa | 0 mm | - | 40 W/m² | - |
| 1788386300 | 33.89° C | 53% | 1035.2 hPa | 0 mm | - | 31 W/m² | - |
| 1788386001 | 33.89° C | 53% | 1035.4 hPa | 0 mm | - | 45 W/m² | - |
| 1788385691 | 33.89° C | 53% | 1035.2 hPa | 0 mm | - | 51 W/m² | - |
| 1788385390 | 34.44° C | 54% | 1035.4 hPa | 0 mm | - | 55 W/m² | - |
| 1788385086 | 35° C | 49% | 1035.1 hPa | 0 mm | - | 51 W/m² | - |
| 1788384780 | 34.44° C | 51% | 1035.6 hPa | 0 mm | - | 253 W/m² | - |
| 1788384479 | 34.44° C | 52% | 1035.3 hPa | 0 mm | - | 51 W/m² | - |
| 1788384176 | 34.44° C | 53% | 1035.3 hPa | 0 mm | - | 57 W/m² | - |
| 1788383871 | 34.44° C | 52% | 1035.4 hPa | 0 mm | - | 56 W/m² | - |
* Rain latest hour (hover to see other rain measurements)
** Current wind speed in m/s (hover to see current wind gust speed)